{"data":{"norad_id":60920,"epoch":"2026-09-21T20:14:13.065792Z","epoch_age_seconds":72442,"freshness":"FRESH","line1":"1 60920U 24154T   26264.84320678 -.00000413  00000+0 -11002-5 0  9999","line2":"2 60920  53.1606  91.5430 0001154 107.8333 252.2795 15.34384107116396","mean_motion":15.34384107,"eccentricity":0.0001154,"inclination_deg":53.1606,"raan_deg":91.543,"arg_perigee_deg":107.8333,"mean_anomaly_deg":252.2795,"bstar":-1.1002e-6,"rev_number":11639,"period_min":93.848730147203,"perigee_km":461.96103954518,"apogee_km":463.53991637509,"semimajor_km":6840.8874779601,"source":"CELESTRAK","updated_at":"2026-09-22T09:00:49.286895Z"}}